User: anonymous
Location: Prairie State College
(41.5244°N, 87.6382°W)
Time: 06:39:20
(UTC-05:00)
Language:

MSX - Orbit

View from above orbital plane
View from above orbital plane
View from above satellite
View from above satellite

Ground track
Ground track

The orbit data is extracted from the following two-line orbital elements,

1 23851U 96024A   14243.18006451 0.00000100  00000-0  70547-4 0    00
2 23851  98.7796 285.8807 0006000 291.6808  68.3190 13.97979441    06
Epoch (UTC): 31 August 2014 04:19:17
Eccentricity: 0.0006000
inclination: 98.7796°
perigee height: 896 km
apogee height: 905 km
right ascension of ascending node: 285.8807°
argument of perigee: 291.6808°
revolutions per day: 13.97979441
mean anomaly at epoch: 68.3190°
orbit number at epoch: 0

The dashed part of the orbit path shows where the satellite is in the earth's shadow,  

DLR